Location: Buckland
(65.9785°N, 161.1281°W)
Time: 04:12:25
(UTC+00:00)

Transit 4A - Pass Details

Date: 27 November 2020
Orbit: 864 x 980 km, 66.8° (Epoch: 26 January)

Event Time Altitude Azimuth Distance (km) Brightness Sun altitude
Rises 23:13:41 0° 268° (W) 3,682 11.2 2.3°
Reaches altitude 10° 23:16:16 10° 269° (W) 2,739 10.5 2.3°
Maximum altitude 23:22:43 83° 358° (N) 996 8.1 2.2°
Drops below altitude 10° 23:29:09 10° 88° (E) 2,723 10.2 2.0°
Sets 23:31:42 0° 89° (E) 3,660 10.9 2.0°
